Вернуться в каталог

STARLINK-33600

АктивенСвязьVLEO
NORAD 62772·PAYLOAD·🇺🇸 United States

Запущен Jan 21, 2025 с Vandenberg Space Force Base

Loading…

Ближайшие Пролёты (ближайшие 24 часа)

TLE

СвежийSource: CelesTrak SupGP

Эпоха: Sep 14, 2026, 21:47 UTC

1 62772C 25015Q   26257.90812500 -.00046402  00000+0 -14917-2 0  2572
2 62772  53.1569 162.4584 0001219  81.5209  32.0292 15.31734143    14

Отслеживайте STARLINK-33600 в реальном времени с AllMySat

Download on the App Store